{"data":{"norad_id":65827,"epoch":"2026-05-25T02:59:48.163200Z","epoch_age_seconds":74519,"freshness":"FRESH","line1":"1 65827U 25221E   26145.12486300  .00022333  00000+0  67011-3 0  9992","line2":"2 65827  53.1597  92.7640 0001134  78.4603 281.6527 15.34402392 37795","mean_motion":15.34402392,"eccentricity":0.0001134,"inclination_deg":53.1597,"raan_deg":92.764,"arg_perigee_deg":78.4603,"mean_anomaly_deg":281.6527,"bstar":0.00067011,"rev_number":3779,"period_min":93.847611780835,"perigee_km":461.92038021123,"apogee_km":463.47188116527,"semimajor_km":6840.8331306883,"source":"CELESTRAK","updated_at":"2026-05-25T13:38:20.942275Z"}}